Location: Unspecified
(0.0000°N, 0.0000°E)
Time: 13:04:33
(UTC+02:00)

CZ-4B DEB - Visible Passes

Search period start: 25 May 2016 00:00
Search period end: 04 June 2016 00:00
Orbit: 438 x 443 km, 97.5° (Epoch: 24 May)

Date Brightness Start Highest point End Pass type
(mag) Time Alt. Az. Time Alt. Az. Time Alt. Az.
25 May 3.4 21:33:55 53° NNW 21:33:55 53° NNW 21:36:33 10° NNW visible
26 May 4.5 20:55:39 18° ENE 20:55:39 18° ENE 20:57:48 10° NNE visible
27 May 4.6 21:50:49 32° WNW 21:50:49 32° WNW 21:53:05 10° NNW visible
28 May 3.7 21:12:30 33° ENE 21:12:30 33° ENE 21:15:10 10° NNE visible
29 May 5.7 22:07:36 18° WNW 22:07:36 18° WNW 22:09:06 10° NW visible
30 May 3.1 21:29:14 57° NNE 21:29:14 57° NNE 21:31:59 10° N visible
31 May 4.7 20:50:49 15° ENE 20:50:49 15° ENE 20:52:43 10° NE visible
01 Jun 4.1 21:45:50 41° WNW 21:45:50 41° WNW 21:48:20 10° NNW visible
02 Jun 3.9 21:07:22 27° ENE 21:07:22 27° ENE 21:10:00 10° NNE visible
03 Jun 5.3 22:02:19 22° WNW 22:02:19 22° WNW 22:04:13 10° NW visible
